This demonstration page uses our WeatherBlox Daily Observations layout. Learn more.

39.92423, -83.80882

Hourly Observations for June 6, 2016

Temp ( °F °C ) Dew Point ( °F °C ) Humidity (%) Winds ( mph kmh ) Pressure ( in mb ) Visibility ( mi km ) Precip ( " mm )
12:56 am 00:56 Clear 65 18.3 60 15.5 84 84 SSW 10 17 29.77 1008 10 16.0934 0 0
1:56 am 01:56 Clear 64 17.7 60 15.5 87 87 SSW 9 15 29.78 1008 10 16.0934 0 0
2:56 am 02:56 Clear 64 17.7 60 15.5 87 87 SSW 9 15 29.78 1009 10 16.0934 0 0
3:56 am 03:56 Mostly Cloudy 65 18.3 60 15.5 84 84 SW 12 19 29.78 1009 10 16.0934 0 0
4:56 am 04:56 Cloudy 65 18.3 60 15.5 84 84 WSW 9 15 29.78 1008 10 16.0934 0 0
5:56 am 05:56 Cloudy 65 18.3 60 15.5 84 84 WSW 7 11 29.78 1009 10 16.0934 0 0
6:56 am 06:56 Cloudy 65 18.3 60 15.5 84 84 SW 7 11 29.79 1009 10 16.0934 0 0
7:56 am 07:56 Partly Cloudy 66 18.8 60 15.5 81 81 SSW 9 15 29.79 1009 10 16.0934 0 0
8:56 am 08:56 Sunny 70 21.1 60 15.5 71 71 SW 12 19 29.78 1009 10 16.0934 0 0
9:56 am 09:56 Sunny 73 22.7 60 15.5 64 64 WSW 14 22 29.78 1008 10 16.0934 0 0
10:56 am 10:56 Sunny 76 24.4 61 16.1 60 60 WSW 15 24 29.77 1008 10 16.0934 0 0
11:56 am 11:56 Sunny 79 26.1 60 15.5 52 52 SW 23 37 29.75 1008 10 16.0934 0 0
12:56 pm 12:56 Sunny 81 27.2 59 15 47 47 WSW 15 24 29.74 1007 10 16.0934 0 0
1:56 pm 13:56 Sunny 83 28.3 58 14.4 43 43 SW 18 30 29.71 1006 10 16.0934 0 0
2:56 pm 14:56 Mostly Sunny 84 28.8 58 14.4 41 41 SSW 17 28 29.69 1005 10 16.0934 0 0
3:56 pm 15:56 Mostly Sunny 83 28.3 58 14.4 43 43 SW 13 20 29.67 1005 10 16.0934 0 0
4:56 pm 16:56 Partly Cloudy 85 29.4 58 14.4 40 40 SSW 18 30 29.65 1004 10 16.0934 0 0
5:56 pm 17:56 Mostly Sunny 83 28.3 58 14.4 43 43 SW 16 26 29.64 1004 10 16.0934 0 0
6:56 pm 18:56 Sunny 80 26.6 59 15 49 49 SSW 15 24 29.63 1004 10 16.0934 0 0
7:56 pm 19:56 Partly Cloudy 81 27.2 53 11.6 38 38 WSW 17 28 29.65 1004 10 16.0934 0 0
8:56 pm 20:56 Sunny 77 25 50 10 39 39 WSW 12 19 29.65 1004 10 16.0934 0 0
9:56 pm 21:56 Mostly Clear 72 22.2 52 11.1 50 50 SW 9 15 29.65 1004 10 16.0934 0 0
10:56 pm 22:56 Mostly Clear 71 21.6 52 11.1 51 51 WNW 13 20 29.67 1005 10 16.0934 0 0
11:56 pm 23:56 Clear 68 20 51 10.5 54 54 W 6 9 29.67 1005 10 16.0934 0 0

Powered by AerisWeather